Air Force Academy, CO

11:11 AM MDT on August 21, 2017 (GMT -0600)
Usaf Academy

Weather History for KAFF - August, 2013

Change the Weather History Date:

Tuesday, August 13, 2013

  Actual Average Record
Temperature  
Mean Temperature 60 °F -  
Max Temperature 73 °F 78 °F 93 °F (1996)
Min Temperature 48 °F 50 °F 42 °F (2002)
Degree Days  
Heating Degree Days 5    
Growing Degree Days 10 (Base 50)    
Moisture  
Dew Point 49 °F    
Average Humidity 63    
Maximum Humidity 96    
Minimum Humidity 38    
Precipitation  
Precipitation 0.00 in - - ()
Sea Level Pressure  
Sea Level Pressure 30.21 in    
Wind  
Wind Speed 6 mph (NNW)    
Max Wind Speed 14 mph    
Max Gust Speed 20 mph    
Visibility 10 miles    
Events Rain , Thunderstorm    
Averages and records for this station are not official NWS values.
T = Trace of Precipitation, MM = Missing Value Source: NWS Daily Summary

Daily Weather History Graph

Daily Weather History Graph

Search for Another Location

Airport or City:

Trip Planner

Search our weather history database for the weather conditions in past years. The results will help you decide how hot, cold, wet, or windy it might be!

Date:

Astronomy

Aug. 13, 2013 Rise Set
Actual Time 6:11 AM MDT 7:56 PM MDT
Civil Twilight 5:42 AM MDT 8:24 PM MDT
Nautical Twilight 5:07 AM MDT 8:59 PM MDT
Astronomical Twilight 4:30 AM MDT 9:36 PM MDT
Moon 1:04 PM MDT (8/13) 11:37 PM MDT (8/13)
Length of Visible Light 14h 42m
Length of Day
13h 45m
Waxing Crescent, 42% of the Moon is Illuminated
Aug 13
Waxing Crescent
Aug 14
First Quarter
Aug 20
Full
Aug 28
Last Quarter
Sep 5
New

Hourly Weather History & Observations

Time (MDT) Temp. Dew Point Humidity Pressure Visibility Wind Dir Wind Speed Gust Speed Precip Events Conditions
12:13 AM 59.0 °F 51.8 °F 77% 30.36 in 10.0 mi NNW 8.1 mph - N/A Rain Light Rain
12:18 AM 59.0 °F 51.8 °F 77% 30.36 in 10.0 mi NNW 8.1 mph - N/A   Mostly Cloudy
12:36 AM 59.0 °F 51.8 °F 77% 30.35 in 10.0 mi NW 3.5 mph - N/A Rain Light Rain
12:58 AM 57.6 °F 53.2 °F 85% 30.35 in 10.0 mi NNW 3.5 mph - 0.00 in   Light Drizzle
1:01 AM 57.2 °F 53.6 °F 88% 30.35 in 10.0 mi NW 2.3 mph - N/A   Mostly Cloudy
1:58 AM 57.2 °F 52.2 °F 83% 30.11 in 10.0 mi NNW 2.3 mph - 0.00 in   Mostly Cloudy
2:58 AM 54.9 °F 52.0 °F 90% 30.12 in 10.0 mi South 2.3 mph - N/A   Clear
3:58 AM 50.5 °F 49.5 °F 96% 30.13 in 10.0 mi NNW 6.9 mph - N/A   Clear
4:58 AM 49.1 °F 47.7 °F 95% 30.11 in 10.0 mi Variable 1.2 mph - N/A   Clear
5:58 AM 48.9 °F 46.2 °F 90% 30.12 in 10.0 mi Calm Calm - N/A   Clear
6:58 AM 50.2 °F 46.2 °F 86% 30.11 in 10.0 mi Variable 2.3 mph - N/A   Clear
7:58 AM 59.5 °F 47.7 °F 65% 30.09 in 10.0 mi ENE 6.9 mph - N/A   Clear
8:58 AM 66.9 °F 45.0 °F 45% 30.08 in 10.0 mi Variable 2.3 mph - N/A   Clear
9:58 AM 70.5 °F 45.3 °F 40% 30.07 in 10.0 mi North 12.7 mph - N/A   Clear
10:58 AM 72.1 °F 45.5 °F 38% 30.09 in 10.0 mi NNW 6.9 mph - N/A   Partly Cloudy
11:58 AM 72.5 °F 45.3 °F 38% 30.07 in 10.0 mi Variable 2.3 mph - N/A   Partly Cloudy
11:59 AM 71.6 °F 44.6 °F 38% 30.33 in 10.0 mi Variable 4.6 mph - N/A Thunderstorm Thunderstorm
12:14 PM 69.8 °F 44.6 °F 40% 30.33 in 10.0 mi Variable 4.6 mph - N/A   Scattered Clouds
12:58 PM 69.1 °F 50.0 °F 51% 30.12 in 10.0 mi SSW 10.4 mph - N/A   Partly Cloudy
1:31 PM 71.6 °F 48.2 °F 43% 30.32 in 10.0 mi SSW 9.2 mph - N/A Rain Light Rain
1:58 PM 72.1 °F 49.6 °F 45% 30.09 in 10.0 mi East 10.4 mph - 0.00 in Thunderstorm Light Drizzle
2:05 PM 69.8 °F 48.2 °F 46% 30.33 in 10.0 mi ENE 5.8 mph - N/A Thunderstorm Scattered Clouds
2:15 PM 69.8 °F 48.2 °F 46% 30.33 in 10.0 mi NNW 9.2 mph - N/A Thunderstorm Thunderstorm
2:19 PM 68.0 °F 50.0 °F 52% 30.33 in 10.0 mi North 13.8 mph 19.6 mph N/A Rain , Thunderstorm Light Thunderstorms and Rain
2:44 PM 60.8 °F 48.2 °F 63% 30.34 in 10.0 mi NE 13.8 mph - N/A Rain , Thunderstorm Light Thunderstorms and Rain
2:46 PM 60.8 °F 48.2 °F 63% 30.34 in 10.0 mi NE 11.5 mph - N/A Thunderstorm Scattered Clouds
2:53 PM 60.8 °F 48.2 °F 63% 30.34 in 10.0 mi North 8.1 mph - N/A Thunderstorm Light Drizzle
2:58 PM 61.2 °F 48.9 °F 64% 30.16 in 10.0 mi North 11.5 mph - 0.00 in Thunderstorm Light Drizzle
3:02 PM 62.6 °F 48.2 °F 59% 30.35 in 10.0 mi North 12.7 mph - N/A Thunderstorm Partly Cloudy
3:14 PM 60.8 °F 50.0 °F 68% 30.35 in 10.0 mi North 8.1 mph 17.3 mph N/A Rain , Thunderstorm Light Rain
3:27 PM 62.6 °F 50.0 °F 63% 30.35 in 10.0 mi NW 3.5 mph - N/A Thunderstorm Scattered Clouds
3:58 PM 62.4 °F 48.4 °F 60% 30.17 in 10.0 mi Variable 2.3 mph - 0.00 in   Partly Cloudy
4:58 PM 66.9 °F 49.5 °F 53% 30.14 in 10.0 mi SW 2.3 mph - N/A   Partly Cloudy
5:58 PM 67.5 °F 48.2 °F 50% 30.12 in 10.0 mi Variable 2.3 mph - N/A   Clear
6:58 PM 68.9 °F 46.4 °F 44% 30.11 in 10.0 mi North 1.2 mph - N/A   Partly Cloudy
7:58 PM 66.4 °F 49.5 °F 54% 30.08 in 10.0 mi SW 5.8 mph - N/A   Mostly Cloudy
8:58 PM 63.0 °F 48.7 °F 60% 30.09 in 10.0 mi SE 4.6 mph - N/A   Partly Cloudy
9:58 PM 59.2 °F 51.6 °F 76% 30.11 in 10.0 mi South 3.5 mph - N/A   Clear
10:58 PM 56.3 °F 49.3 °F 77% 30.11 in 10.0 mi NNW 2.3 mph - N/A   Clear
11:58 PM 55.6 °F 49.8 °F 81% 30.13 in 10.0 mi North 5.8 mph - N/A   Scattered Clouds